Tracking 31011 objects as of 12-Jul-2025
HD Live streaming from Space Station
objects crossing your sky now

NORBY-2

Track NORBY-2 now!
10-day predictions
NORBY-2 is classified as:


NORAD ID: 57179
Int'l Code: 2023-091P
Perigee: 524.3 km
Apogee: 545.3 km
Inclination: 97.6 °
Period: 95.2 minutes
Semi major axis: 6905 km
RCS: Unknown
Launch date: June 27, 2023
Source: (TBD)
Launch site: VOSTOCHNY COSMODROME (VOSTO)

Uplink (MHz):
Downlink (MHz): 435.600
Beacon (MHz):
Mode: LoRa
Call sign:
Status: Active

Your satellite tracking list
Your tracking list is empty




NASA's NSSDC Master Catalog

Two Line Element Set (TLE):
1 57179U 23091P   25193.20614982  .00002494  00000-0  14545-3 0  9997
2 57179  97.5607 247.3646 0015237 215.6967 144.3246 15.12806345112329
Source of the keplerian elements: AFSPC